Time,TemperatureF,DewpointF,PressureIn,WindDirection,WindDirectionDegrees,WindSpeedMPH,WindSpeedGustMPH,Humidity,HourlyPrecipIn,Conditions,Clouds,dailyrainin,SoftwareType,DateUTC
2013-03-27 00:11:00,30.0,21.8,29.80,ENE,67,1.1,-999.0,71,-99.99,,,0.00,Acu-Link.com,2013-03-27 04:11:00,
2013-03-27 00:27:00,29.8,21.6,29.80,NE,45,1.1,-999.0,71,-99.99,,,0.00,Acu-Link.com,2013-03-27 04:27:00,
2013-03-27 00:42:00,30.0,21.8,29.81,NE,45,0.0,-999.0,71,-99.99,,,0.00,Acu-Link.com,2013-03-27 04:42:00,
2013-03-27 00:57:00,30.2,21.9,29.80,NE,45,3.2,-999.0,71,-99.99,,,0.00,Acu-Link.com,2013-03-27 04:57:00,
2013-03-27 01:13:00,30.0,22.1,29.80,ENE,67,3.2,-999.0,72,-99.99,,,0.00,Acu-Link.com,2013-03-27 05:13:00,
2013-03-27 01:28:00,29.8,21.9,29.80,ENE,67,2.7,-999.0,72,-99.99,,,0.00,Acu-Link.com,2013-03-27 05:28:00,
2013-03-27 01:43:00,29.7,22.4,29.80,NE,45,2.2,-999.0,74,-99.99,,,0.00,Acu-Link.com,2013-03-27 05:43:00,
2013-03-27 01:58:00,29.3,22.1,29.80,ESE,112,1.1,-999.0,74,-99.99,,,0.00,Acu-Link.com,2013-03-27 05:58:00,
2013-03-27 02:13:00,29.1,22.5,29.80,NNE,22,4.7,-999.0,76,-99.99,,,0.00,Acu-Link.com,2013-03-27 06:13:00,
2013-03-27 02:28:00,29.1,21.9,29.80,ESE,112,3.7,-999.0,74,-99.99,,,0.00,Acu-Link.com,2013-03-27 06:28:00,
2013-03-27 02:44:00,29.3,21.7,29.80,West,270,2.7,-999.0,73,-99.99,,,0.00,Acu-Link.com,2013-03-27 06:44:00,
2013-03-27 02:59:00,29.1,21.9,29.80,SSW,202,3.2,-999.0,74,-99.99,,,0.00,Acu-Link.com,2013-03-27 06:59:00,
2013-03-27 03:14:00,28.9,21.7,29.79,South,180,2.7,-999.0,74,-99.99,,,0.00,Acu-Link.com,2013-03-27 07:14:00,
2013-03-27 03:30:00,28.8,21.9,29.80,WSW,247,2.2,-999.0,75,-99.99,,,0.00,Acu-Link.com,2013-03-27 07:30:00,
2013-03-27 03:45:00,28.8,21.6,29.79,ENE,67,0.0,-999.0,74,-99.99,,,0.00,Acu-Link.com,2013-03-27 07:45:00,
2013-03-27 04:00:00,29.3,22.1,29.79,North,0,1.1,-999.0,74,-99.99,,,0.00,Acu-Link.com,2013-03-27 08:00:00,
2013-03-27 04:15:00,29.5,21.9,29.79,ESE,112,2.7,-999.0,73,-99.99,,,0.00,Acu-Link.com,2013-03-27 08:15:00,
2013-03-27 04:30:00,29.7,22.1,29.79,ENE,67,1.7,-999.0,73,-99.99,,,0.00,Acu-Link.com,2013-03-27 08:30:00,
2013-03-27 04:45:00,29.7,22.1,29.79,NE,45,3.2,-999.0,73,-99.99,,,0.00,Acu-Link.com,2013-03-27 08:45:00,
2013-03-27 05:00:00,29.8,22.2,29.79,NE,45,3.2,-999.0,73,-99.99,,,0.00,Acu-Link.com,2013-03-27 09:00:00,
2013-03-27 05:16:00,29.7,22.1,29.80,NNE,22,3.2,-999.0,73,-99.99,,,0.00,Acu-Link.com,2013-03-27 09:16:00,
2013-03-27 05:46:00,29.3,21.1,29.81,NNE,22,4.7,-999.0,71,-99.99,,,0.00,Acu-Link.com,2013-03-27 09:46:00,
2013-03-27 06:01:00,28.9,20.7,29.81,NNE,22,2.7,-999.0,71,-99.99,,,0.00,Acu-Link.com,2013-03-27 10:01:00,
2013-03-27 06:17:00,28.8,20.3,29.81,NW,315,4.7,-999.0,70,-99.99,,,0.00,Acu-Link.com,2013-03-27 10:17:00,
2013-03-27 06:32:00,28.6,19.4,29.81,South,180,2.7,-999.0,68,-99.99,,,0.00,Acu-Link.com,2013-03-27 10:32:00,
2013-03-27 06:47:00,28.6,19.1,29.82,WNW,292,4.2,-999.0,67,-99.99,,,0.00,Acu-Link.com,2013-03-27 10:47:00,
2013-03-27 07:03:00,28.2,18.0,29.82,ESE,112,3.7,-999.0,65,-99.99,,,0.00,Acu-Link.com,2013-03-27 11:03:00,
2013-03-27 07:18:00,27.9,18.0,29.82,East,90,2.2,-999.0,66,-99.99,,,0.00,Acu-Link.com,2013-03-27 11:18:00,
2013-03-27 07:33:00,28.0,18.8,29.83,ENE,67,1.1,-999.0,68,-99.99,,,0.00,Acu-Link.com,2013-03-27 11:33:00,
2013-03-27 07:49:00,28.0,18.8,29.83,South,180,4.2,-999.0,68,-99.99,,,0.00,Acu-Link.com,2013-03-27 11:49:00,
2013-03-27 08:04:00,28.4,19.6,29.84,North,0,1.7,-999.0,69,-99.99,,,0.00,Acu-Link.com,2013-03-27 12:04:00,
2013-03-27 08:19:00,28.9,20.0,29.84,ESE,112,3.2,-999.0,69,-99.99,,,0.00,Acu-Link.com,2013-03-27 12:19:00,
2013-03-27 08:34:00,29.5,20.9,29.85,WNW,292,3.7,-999.0,70,-99.99,,,0.00,Acu-Link.com,2013-03-27 12:34:00,
2013-03-27 08:49:00,29.7,22.1,29.85,NW,315,1.7,-999.0,73,-99.99,,,0.00,Acu-Link.com,2013-03-27 12:49:00,
2013-03-27 09:04:00,29.8,22.2,29.85,West,270,3.7,-999.0,73,-99.99,,,0.00,Acu-Link.com,2013-03-27 13:04:00,
2013-03-27 09:20:00,30.4,22.5,29.85,ESE,112,4.2,-999.0,72,-99.99,,,0.00,Acu-Link.com,2013-03-27 13:20:00,
2013-03-27 09:35:00,31.5,22.9,29.86,SSW,202,4.2,-999.0,70,-99.99,,,0.00,Acu-Link.com,2013-03-27 13:35:00,
2013-03-27 09:50:00,31.8,22.5,29.86,North,0,6.3,-999.0,68,-99.99,,,0.00,Acu-Link.com,2013-03-27 13:50:00,
2013-03-27 10:06:00,32.4,22.0,29.87,NNE,22,7.3,-999.0,65,-99.99,,,0.00,Acu-Link.com,2013-03-27 14:06:00,
2013-03-27 10:36:00,32.7,21.1,29.87,WNW,292,6.3,-999.0,62,-99.99,,,0.00,Acu-Link.com,2013-03-27 14:36:00,
2013-03-27 10:51:00,34.5,21.7,29.88,West,270,4.7,-999.0,59,-99.99,,,0.00,Acu-Link.com,2013-03-27 14:51:00,
2013-03-27 11:07:00,37.4,23.6,29.87,South,180,4.2,-999.0,57,-99.99,,,0.00,Acu-Link.com,2013-03-27 15:07:00,
2013-03-27 11:22:00,34.5,21.3,29.88,ESE,112,8.9,-999.0,58,-99.99,,,0.00,Acu-Link.com,2013-03-27 15:22:00,
2013-03-27 11:37:00,35.2,21.9,29.87,NE,45,2.7,-999.0,58,-99.99,,,0.00,Acu-Link.com,2013-03-27 15:37:00,
2013-03-27 11:52:00,36.1,21.9,29.88,West,270,4.7,-999.0,56,-99.99,,,0.00,Acu-Link.com,2013-03-27 15:52:00,
2013-03-27 12:07:00,38.5,23.3,29.88,NW,315,2.7,-999.0,54,-99.99,,,0.00,Acu-Link.com,2013-03-27 16:07:00,
2013-03-27 12:22:00,38.1,22.5,29.88,NE,45,3.2,-999.0,53,-99.99,,,0.00,Acu-Link.com,2013-03-27 16:22:00,
2013-03-27 12:38:00,39.4,22.3,29.88,NNW,337,4.2,-999.0,50,-99.99,,,0.00,Acu-Link.com,2013-03-27 16:38:00,
2013-03-27 12:53:00,39.6,23.0,29.88,NNE,22,7.3,-999.0,51,-99.99,,,0.00,Acu-Link.com,2013-03-27 16:53:00,
2013-03-27 13:08:00,41.0,23.3,29.87,North,0,1.7,-999.0,49,-99.99,,,0.00,Acu-Link.com,2013-03-27 17:08:00,
2013-03-27 13:23:00,42.3,24.0,29.87,NW,315,4.2,-999.0,48,-99.99,,,0.00,Acu-Link.com,2013-03-27 17:23:00,
2013-03-27 13:38:00,41.5,23.8,29.87,ENE,67,5.8,-999.0,49,-99.99,,,0.00,Acu-Link.com,2013-03-27 17:38:00,
2013-03-27 13:54:00,43.2,23.8,29.87,East,90,6.8,-999.0,46,-99.99,,,0.00,Acu-Link.com,2013-03-27 17:54:00,
2013-03-27 14:09:00,42.8,24.0,29.86,WSW,247,3.2,-999.0,47,-99.99,,,0.00,Acu-Link.com,2013-03-27 18:09:00,
2013-03-27 14:24:00,44.6,22.9,29.85,NNW,337,5.8,-999.0,42,-99.99,,,0.00,Acu-Link.com,2013-03-27 18:24:00,
2013-03-27 14:40:00,45.0,23.9,29.85,SW,225,3.2,-999.0,43,-99.99,,,0.00,Acu-Link.com,2013-03-27 18:40:00,
2013-03-27 14:55:00,43.5,23.1,29.84,North,0,3.2,-999.0,44,-99.99,,,0.00,Acu-Link.com,2013-03-27 18:55:00,
2013-03-27 15:10:00,44.4,23.3,29.84,NE,45,2.7,-999.0,43,-99.99,,,0.00,Acu-Link.com,2013-03-27 19:10:00,
2013-03-27 15:25:00,44.6,23.5,29.83,ESE,112,4.7,-999.0,43,-99.99,,,0.00,Acu-Link.com,2013-03-27 19:25:00,
2013-03-27 15:56:00,44.6,23.5,29.83,NE,45,1.7,-999.0,43,-99.99,,,0.00,Acu-Link.com,2013-03-27 19:56:00,
2013-03-27 16:11:00,43.9,22.9,29.83,WNW,292,4.7,-999.0,43,-99.99,,,0.00,Acu-Link.com,2013-03-27 20:11:00,
2013-03-27 16:27:00,45.9,23.5,29.82,West,270,3.7,-999.0,41,-99.99,,,0.00,Acu-Link.com,2013-03-27 20:27:00,
2013-03-27 16:42:00,46.4,24.6,29.82,ENE,67,4.7,-999.0,42,-99.99,,,0.00,Acu-Link.com,2013-03-27 20:42:00,
2013-03-27 16:57:00,45.9,24.1,29.82,East,90,5.3,-999.0,42,-99.99,,,0.00,Acu-Link.com,2013-03-27 20:57:00,
2013-03-27 17:12:00,46.4,24.6,29.81,NNW,337,5.3,-999.0,42,-99.99,,,0.00,Acu-Link.com,2013-03-27 21:12:00,
2013-03-27 17:27:00,46.0,24.2,29.81,SE,135,1.7,-999.0,42,-99.99,,,0.00,Acu-Link.com,2013-03-27 21:27:00,
2013-03-27 17:43:00,45.5,23.8,29.81,ESE,112,1.1,-999.0,42,-99.99,,,0.00,Acu-Link.com,2013-03-27 21:43:00,
2013-03-27 17:58:00,45.5,24.3,29.81,West,270,3.7,-999.0,43,-99.99,,,0.00,Acu-Link.com,2013-03-27 21:58:00,
2013-03-27 18:13:00,45.5,24.3,29.82,West,270,2.2,-999.0,43,-99.99,,,0.00,Acu-Link.com,2013-03-27 22:13:00,
2013-03-27 18:29:00,43.9,23.4,29.83,West,270,3.2,-999.0,44,-99.99,,,0.00,Acu-Link.com,2013-03-27 22:29:00,
2013-03-27 18:44:00,43.7,23.8,29.83,WSW,247,2.7,-999.0,45,-99.99,,,0.00,Acu-Link.com,2013-03-27 22:44:00,
2013-03-27 18:59:00,42.8,23.5,29.83,South,180,2.7,-999.0,46,-99.99,,,0.00,Acu-Link.com,2013-03-27 22:59:00,
2013-03-27 19:14:00,41.4,22.7,29.84,SSW,202,1.7,-999.0,47,-99.99,,,0.00,Acu-Link.com,2013-03-27 23:14:00,
2013-03-27 19:29:00,40.5,22.9,29.83,West,270,2.7,-999.0,49,-99.99,,,0.00,Acu-Link.com,2013-03-27 23:29:00,
2013-03-27 19:44:00,39.6,23.0,29.84,West,270,4.7,-999.0,51,-99.99,,,0.00,Acu-Link.com,2013-03-27 23:44:00,
2013-03-27 20:00:00,38.8,22.7,29.85,South,180,2.2,-999.0,52,-99.99,,,0.00,Acu-Link.com,2013-03-28 00:00:00,
2013-03-27 20:15:00,37.9,22.8,29.85,North,0,3.7,-999.0,54,-99.99,,,0.00,Acu-Link.com,2013-03-28 00:15:00,
2013-03-27 20:30:00,37.6,22.5,29.85,East,90,2.7,-999.0,54,-99.99,,,0.00,Acu-Link.com,2013-03-28 00:30:00,
2013-03-27 20:46:00,37.0,23.2,29.85,NNE,22,1.1,-999.0,57,-99.99,,,0.00,Acu-Link.com,2013-03-28 00:46:00,
2013-03-27 21:01:00,36.5,22.7,29.85,West,270,3.7,-999.0,57,-99.99,,,0.00,Acu-Link.com,2013-03-28 01:01:00,
2013-03-27 21:47:00,35.4,22.5,29.85,WSW,247,0.0,-999.0,59,-99.99,,,0.00,Acu-Link.com,2013-03-28 01:47:00,
2013-03-27 22:02:00,35.1,22.6,29.86,NNE,22,1.7,-999.0,60,-99.99,,,0.00,Acu-Link.com,2013-03-28 02:02:00,
2013-03-27 22:17:00,34.9,22.4,29.86,WNW,292,5.3,-999.0,60,-99.99,,,0.00,Acu-Link.com,2013-03-28 02:17:00,
2013-03-27 22:32:00,34.7,22.6,29.86,NW,315,2.7,-999.0,61,-99.99,,,0.00,Acu-Link.com,2013-03-28 02:32:00,
2013-03-27 22:47:00,34.2,22.2,29.86,SSE,157,2.2,-999.0,61,-99.99,,,0.00,Acu-Link.com,2013-03-28 02:47:00,
2013-03-27 23:03:00,34.0,22.4,29.87,South,180,2.7,-999.0,62,-99.99,,,0.00,Acu-Link.com,2013-03-28 03:03:00,
2013-03-27 23:18:00,33.4,22.2,29.87,ESE,112,1.1,-999.0,63,-99.99,,,0.00,Acu-Link.com,2013-03-28 03:18:00,
2013-03-27 23:33:00,33.3,22.1,29.88,WNW,292,2.7,-999.0,63,-99.99,,,0.00,Acu-Link.com,2013-03-28 03:33:00,
2013-03-27 23:49:00,32.7,21.9,29.87,SSW,202,1.7,-999.0,64,-99.99,,,0.00,Acu-Link.com,2013-03-28 03:49:00,